User: anonymous   Login
Location: Carnières
(50.1682°N, 3.3474°E)
Time: 14:07:35
(UTC+00:00)
Language:

Cosmos 1782 Rocket - Orbit

View from above orbital plane
View from above orbital plane
View from above satellite
View from above satellite

Ground track
Ground track

The orbit data is extracted from the following two-line orbital elements,

1 16987U 86074B   24199.09135848  .00000790  00000-0  91239-4 0  9993
2 16987  82.5144  46.7122 0018331  19.7457  97.1702 14.84245569 41939
Epoch (UTC): 17 July 2024 02:11:33
Eccentricity: 0.0018331
inclination: 82.5144°
perigee height: 603 km
apogee height: 629 km
right ascension of ascending node: 46.7122°
argument of perigee: 19.7457°
revolutions per day: 14.84245569
mean anomaly at epoch: 97.1702°
orbit number at epoch: 4193

The dashed part of the orbit path shows where the satellite is in the earth's shadow,  

DLR